User: anonymous   Login
Location: Melbourne
(37.8170°S, 144.9670°E)
Time: 23:43:32
(UTC+11:00)
Language:

CZ-3 R/B - Orbit

View from above orbital plane
View from above orbital plane
View from above satellite
View from above satellite

Ground track
Ground track

The orbit data is extracted from the following two-line orbital elements,

1 29517U 06048B   16344.62803852  .00033010  00000-0  95338-3 0  9992
2 29517  28.4311  99.1308 4418412 117.9466 293.4186  6.74289571154690
Epoch (UTC): 09 December 2016 15:04:22
Eccentricity: 0.4418412
inclination: 28.4311°
perigee height: 228 km
apogee height: 10686 km
right ascension of ascending node: 99.1308°
argument of perigee: 117.9466°
revolutions per day: 6.74289571
mean anomaly at epoch: 293.4186°
orbit number at epoch: 15469

The dashed part of the orbit path shows where the satellite is in the earth's shadow,  

DLR